TITAN 3C TRANSTAGE DEB, 1671

Orbit data source: Space-Track

TITAN 3C TRANSTAGE DEB, 1671 is space debris in LEO originally from a launch on Fri, 15 Oct 1965 UTC launched from the Air Force Eastern Test Range (AFETR). Debris objects in space refer to the collection of defunct objects orbiting the Earth. Examples of debris include non-operational satellites, rocket bodies, and fragments generated from explosions, collisions, or faulty payload assembly.

Loading next visibility...
Identifier
1671, 1965-082AJ
Orbit
LEO
Country
Flag of USUS
Related business
Manufacturer
Unknown
Mission
Spacecraft
Bus & Motor
Unknown
Mass
Unknown
Launch date (UTC)
1965-10-15 (60 years ago)
Launch vehicle
Unknown
Launch site
Air Force Eastern Test Range (AFETR)
Object type
Payload
Rocket body
Debris
Shape & HBR
Unknown shape, 0.3 m
Radar Cross Section
Medium (>0.1 m² and <1 m²)

Expand to show TLE details & history
Last TLE update: 1 day ago

TLE from 1 day ago
0 TITAN 3C TRANSTAGE DEB
1 01671U 65082AJ  25306.30492289  .00000696  00000-0  15239-3 0  9993
2 01671  32.1617 296.8205 0052179  12.3528 347.8384 14.53774930153351
Epoch: 2025-11-02T07:19Z
TLE epoch observation values (Epoch: 2025-11-02T07:19:05.337Z)
Latitude
-0°
Longitude
145.2257°
Altitude
675.85 km
Speed
7.54 km/s
True Right ascension
19h 47m 16s
True Declination
0° 00' 00"
Sunlit
Object was in daylight at epoch
Visualization orbit readout
Latitude
Unknown
Longitude
Unknown
Altitude
Unknown
Speed
Unknown
Apparent Right ascension
Unknown
Apparent Declination
Unknown
Sunlit
N/A
Visualization observer readout
Local Sidereal Time
05:07:24
Azimuth
Unknown
Elevation
Unknown
Doppler factor
Unknown
Orbital elements
Apogee altitude
753.944 km
Perigee altitude
679.901 km
Semi-major axis
7,095.06 km
Eccentricity
0.00522
Inclination
32.1617°
RAAN
296.8205°
Arg. of periapsis
12.3528°
True anomaly
347.71163°
Mean anomaly
347.8384°
Eccentric anomaly
347.77509°
Mean motion
3.63169 °/min
Orbital period
99.13 mins
BSTAR
0.00015239

Documentation

Showing up to 5 results
|